Flag for Saint Lucia Weather past 2 weeks in Vieux Fort, Saint Lucia

Now
84 °F

Scattered clouds.


Feels Like: 92 °F
Forecast: 81 / 86 °F
Wind: 16 mph from East

Location: Hewanorra International Airport

Current Time: Aug 23, 2014 at 2:08:43 PM

Latest Report: Aug 23, 2014 at 1:00 PM


Visibility: N/A

Pressure: 29.92 "Hg

Humidity: 74%

Dew point: 75 °F

Location of Vieux FortLocation

Historic Weather in Vieux Fort — Graph

°F

Vieux Fort temperature yesterday

Maximum temperature yesterday: 86 °F (at 12:00 PM)
Minimum temperature yesterday: 77 °F (at 5:00 AM)
Average temperature yesterday: 83 °F

Past Weeks' High & Low Weather Summary

 TemperatureHumidityPressure
High88 °F (Aug 16, 11:00 AM)100% (Aug 10, 9:00 AM)30.07 "Hg (Aug 10, 9:00 AM)
Low68 °F (Aug 10, 9:00 AM)62% (Aug 22, 12:00 PM)29.83 "Hg (Aug 21, 4:00 PM)
Average82 °F81%29.96 "Hg
* Reported Aug 8 12:00 Noon — Aug 23 12:00 Noon, Vieux Fort, Weather by CustomWeather, © 2014

Note: Actual official high and low records may vary slightly from our data, if they occured in-between our weather recording intervals... More about our weather records

Advertising

Vieux Fort weather history for previous 24 hours

 ConditionsComfort  
Time TempWeatherWind HumidityBarometerVisibility
12:00 PM
Aug 23
84 °FPartly sunny.21 mph74%29.92 "HgN/A
11:00 AM86 °FPartly sunny.16 mph70%29.95 "HgN/A
10:00 AM86 °FBroken clouds.14 mph75%29.95 "HgN/A
9:00 AM84 °FScattered clouds.12 mph79%29.95 "HgN/A
8:00 AM82 °FPartly sunny.14 mph84%29.95 "HgN/A
7:00 AM81 °FBroken clouds.13 mph89%29.92 "HgN/A
6:00 AM81 °FPartly sunny.12 mph89%29.92 "HgN/A
5:00 AM82 °FPartly cloudy.14 mph84%29.89 "HgN/A
4:00 AM82 °FPassing clouds.12 mph84%29.89 "HgN/A
3:00 AM81 °FPassing clouds.14 mph89%29.89 "HgN/A
2:00 AM82 °FPassing clouds.13 mph84%29.89 "HgN/A
1:00 AM82 °FPassing clouds.14 mph84%29.92 "HgN/A
12:00 AM82 °FPartly cloudy.12 mph84%29.95 "HgN/A
11:00 PM
Aug 22
82 °FPassing clouds.14 mph84%29.95 "HgN/A
10:00 PM81 °FPartly cloudy.13 mph89%29.95 "HgN/A
9:00 PM82 °FPartly cloudy.14 mph84%29.95 "HgN/A
8:00 PM82 °FPassing clouds.12 mph84%29.92 "HgN/A
7:00 PM84 °FPassing clouds.13 mph74%29.92 "HgN/A
6:00 PM84 °FScattered clouds.12 mph74%29.89 "HgN/A
5:00 PM84 °FScattered clouds.16 mph74%29.89 "HgN/A
4:00 PM84 °FScattered clouds.14 mph79%29.89 "HgN/A
3:00 PM86 °FScattered clouds.13 mph75%29.89 "HgN/A
2:00 PM86 °FPartly sunny.10 mph75%29.89 "HgN/A
Weather by CustomWeather, © 2014

See weather overviewHow to use our weather pages